Location: Unspecified
(0.0000°N, 0.0000°E)
Time: 03:16:50
(UTC+00:00)

Hubble Space Telescope - Pass Details

Date: 26 February 2021
Orbit: 536 x 539 km, 28.5° (Epoch: 24 February)

Event Time Altitude Azimuth Distance (km) Brightness Sun altitude
Rises 19:53:51 0° 264° (W) 2,666 5.7 -25.0°
Reaches altitude 10° 19:56:30 10° 280° (W) 1,775 4.3 -25.6°
Enters shadow 19:59:36 22° 329° (NNW) 1,203 2.7 -26.4°
